Location: Berg
(48.5667°N, 13.9833°E)
Time: 14:06:49
(UTC+00:00)

Iridium 4 Rocket - Pass Details

Date: 09 April 2020
Orbit: 586 x 904 km, 86.9° (Epoch: 03 June)

Event Time Altitude Azimuth Distance (km) Brightness Sun altitude
Rises 19:51:42 0° 358° (N) 2,859 7.1 -19.3°
Reaches altitude 10° 19:53:55 10° 359° (N) 1,934 6.1 -19.6°
Maximum altitude 19:58:07 79° 86° (E) 604 2.8 -20.1°
Enters shadow 19:59:07 51° 162° (SSE) 743 3.1 -20.3°
